DW4554 Weather Reports


time (UTC)temp
C
wind
direction
speed
KPH
gust
KPH
rain 1hr
cm
rain 24hr
cm
rain mn
cm
humidity
%
barometer
mb
20260507144404 20 155 3.2 9.7 0.00 0.00 0.00 56 1009.6
20260507143905 20 176 3.2 8.0 0.00 0.00 0.00 56 1009.6
20260507143404 20 215 6.4 12.9 0.00 0.00 0.00 57 1009.6
20260507142905 20 207 8.0 12.9 0.00 0.00 0.00 56 1009.6
20260507142404 19 169 4.8 11.3 0.00 0.00 0.00 57 1009.7
20260507140904 19 216 8.0 11.3 0.00 0.00 0.00 56 1009.6
20260507135905 19 227 3.2 11.3 0.00 0.00 0.00 57 1009.5
20260507135404 19 202 4.8 11.3 0.00 0.00 0.00 56 1009.6
20260507134904 19 201 3.2 8.0 0.00 0.00 0.00 56 1009.6
20260507133904 19 219 6.4 11.3 0.00 0.00 0.00 57 1009.4
20260507133404 19 211 4.8 12.9 0.00 0.00 0.00 57 1009.5
20260507132404 20 233 8.0 19.3 0.00 0.00 0.00 56 1009.6
20260507131906 20 220 9.7 14.5 0.00 0.00 0.00 55 1009.7
20260507131404 20 222 8.0 14.5 0.00 0.00 0.00 56 1009.6
20260507130904 20 224 6.4 20.9 0.00 0.00 0.00 56 1009.6
20260507130404 20 221 11.3 19.3 0.00 0.00 0.00 54 1009.6
20260507125904 20 219 9.7 19.3 0.00 0.00 0.00 55 1009.6
20260507125405 20 222 11.3 19.3 0.00 0.00 0.00 56 1009.6
20260507124905 20 209 8.0 19.3 0.00 0.00 0.00 58 1009.6
20260507124404 20 244 9.7 24.1 0.00 0.00 0.00 60 1009.7
20260507123904 20 214 11.3 20.9 0.00 0.00 0.00 59 1009.7
20260507123404 20 248 11.3 19.3 0.00 0.00 0.00 58 1009.6
20260507122904 20 225 9.7 19.3 0.00 0.00 0.00 59 1009.6
20260507122404 20 250 9.7 16.1 0.00 0.00 0.00 58 1009.5
20260507121904 20 229 11.3 20.9 0.00 0.00 0.00 59 1009.6
20260507121404 20 233 9.7 19.3 0.00 0.00 0.00 58 1009.6
20260507120904 20 223 11.3 24.1 0.00 0.00 0.00 57 1009.7
20260507115904 20 235 11.3 22.5 0.00 0.00 0.00 58 1009.7
20260507115404 20 224 11.3 24.1 0.00 0.00 0.00 59 1009.7
20260507114904 20 239 9.7 27.4 0.00 0.00 0.00 60 1009.7
20260507114404 20 234 9.7 27.4 0.00 0.00 0.00 59 1009.7
20260507113904 20 216 8.0 19.3 0.00 0.00 0.00 59 1009.7
20260507113404 20 220 9.7 19.3 0.00 0.00 0.00 59 1009.7
20260507112905 20 227 9.7 19.3 0.00 0.00 0.00 58 1009.7
20260507112404 20 216 11.3 20.9 0.00 0.00 0.00 60 1009.7
20260507111905 20 196 8.0 25.7 0.00 0.00 0.00 59 1009.7
20260507111404 20 222 6.4 19.3 0.00 0.00 0.00 62 1009.7
20260507110904 20 242 11.3 19.3 0.00 0.00 0.00 61 1009.7
20260507110408 20 238 8.0 19.3 0.00 0.00 0.00 61 1009.7
20260507105903 20 238 9.7 19.3 0.00 0.00 0.00 62 1009.7
20260507105404 20 223 9.7 19.3 0.00 0.00 0.00 61 1009.6
20260507104904 20 224 9.7 19.3 0.00 0.00 0.00 61 1009.6
20260507104405 20 248 9.7 19.3 0.00 0.00 0.00 63 1009.6
20260507103904 19 245 12.9 24.1 0.00 0.00 0.00 63 1009.5
20260507103404 19 203 9.7 22.5 0.00 0.00 0.00 64 1009.6
20260507102904 19 236 6.4 16.1 0.00 0.00 0.00 65 1009.6
20260507102404 19 218 9.7 20.9 0.00 0.00 0.00 64 1009.5
20260507101904 18 237 6.4 22.5 0.00 0.00 0.00 65 1009.5
20260507101405 19 194 12.9 25.7 0.00 0.00 0.00 64 1009.5
20260507100904 19 193 6.4 16.1 0.00 0.00 0.00 64 1009.5
20260507095904 20 200 4.8 12.9 0.00 0.00 0.00 64 1009.4
20260507095404 20 203 8.0 14.5 0.00 0.00 0.00 64 1009.4
20260507094904 20 198 8.0 14.5 0.00 0.00 0.00 64 1009.2
20260507094404 20 221 9.7 19.3 0.00 0.00 0.00 65 1009.2
20260507093405 20 186 4.8 14.5 0.00 0.00 0.00 64 1009.2
20260507092904 20 195 6.4 19.3 0.00 0.00 0.00 65 1009.1
20260507091904 20 205 4.8 14.5 0.00 0.00 0.00 66 1009.1
20260507091404 20 189 3.2 11.3 0.00 0.00 0.00 67 1009.0
20260507090904 19 241 9.7 16.1 0.00 0.00 0.00 68 1008.9
20260507090404 19 175 4.8 12.9 0.00 0.00 0.00 69 1008.9
20260507085905 18 188 1.6 9.7 0.00 0.00 0.00 70 1008.9
20260507085404 18 218 3.2 9.7 0.00 0.00 0.00 70 1008.9
20260507084404 18 201 4.8 11.3 0.00 0.00 0.00 70 1008.8
20260507083904 18 206 4.8 12.9 0.00 0.00 0.00 70 1008.8
20260507083404 18 186 4.8 11.3 0.00 0.00 0.00 71 1008.7
20260507082404 18 216 4.8 8.0 0.00 0.00 0.00 69 1008.7
20260507081905 18 205 4.8 9.7 0.00 0.00 0.00 70 1008.7
20260507081404 18 229 6.4 12.9 0.00 0.00 0.00 69 1008.6
20260507080405 18 190 0.0 4.8 0.00 0.00 0.00 69 1008.6
20260507075904 18 193 3.2 11.3 0.00 0.00 0.00 70 1008.6
20260507075404 18 228 6.4 11.3 0.00 0.00 0.00 71 1008.6
20260507074905 18 248 4.8 12.9 0.00 0.00 0.00 72 1008.6
20260507074404 18 229 8.0 16.1 0.00 0.00 0.00 71 1008.6
20260507073904 17 222 8.0 14.5 0.00 0.00 0.00 72 1008.6
20260507073404 17 246 4.8 11.3 0.00 0.00 0.00 73 1008.6
20260507072905 17 233 3.2 8.0 0.00 0.00 0.00 74 1008.6
20260507071405 16 175 1.6 8.0 0.00 0.00 0.00 75 1008.5
20260507070904 16 209 8.0 12.9 0.00 0.00 0.00 76 1008.5
20260507070404 16 192 3.2 11.3 0.00 0.00 0.00 76 1008.4
20260507065904 16 198 6.4 12.9 0.00 0.00 0.00 77 1008.4
20260507065404 16 184 4.8 8.0 0.00 0.00 0.00 77 1008.4
20260507064904 16 168 4.8 11.3 0.00 0.00 0.00 77 1008.4
20260507064404 16 203 3.2 12.9 0.00 0.00 0.00 77 1008.4
20260507063904 16 207 4.8 11.3 0.00 0.00 0.00 77 1008.4
20260507063404 16 213 3.2 9.7 0.00 0.00 0.00 77 1008.4
20260507062904 16 166 6.4 11.3 0.00 0.00 0.00 78 1008.5
20260507061905 16 152 4.8 11.3 0.00 0.00 0.00 78 1008.1
20260507061405 15 233 3.2 9.7 0.00 0.00 0.00 78 1008.0
20260507060904 15 211 3.2 4.8 0.00 0.00 0.00 79 1007.9
20260507060404 15 207 1.6 4.8 0.00 0.00 0.00 79 1007.9
20260507055919 15 207 1.6 4.8 0.00 0.00 0.00 79 1007.9
20260507055404 15 207 3.2 9.7 0.00 0.00 0.00 79 1007.8
20260507054905 15 189 1.6 8.0 0.00 0.00 0.00 79 1007.8
20260507054404 15 185 3.2 9.7 0.00 0.00 0.00 79 1007.7
20260507053904 15 206 4.8 11.3 0.00 0.00 0.00 79 1007.7
20260507053404 15 189 8.0 12.9 0.00 0.00 0.00 79 1007.7
20260507052405 15 190 4.8 11.3 0.00 0.00 0.00 79 1007.6
20260507051904 15 232 3.2 14.5 0.00 0.00 0.00 79 1007.6
20260507051405 15 213 4.8 12.9 0.00 0.00 0.00 79 1007.6
20260507050904 15 214 4.8 11.3 0.00 0.00 0.00 79 1007.5
20260507050404 15 205 3.2 9.7 0.00 0.00 0.00 79 1007.4
20260507045405 15 194 3.2 11.3 0.00 0.00 0.00 79 1007.2
20260507043905 15 188 1.6 4.8 0.00 0.00 0.00 79 1007.1
20260507043404 15 188 3.2 11.3 0.00 0.00 0.00 79 1007.1
20260507042904 15 165 1.6 8.0 0.00 0.00 0.00 79 1007.1
20260507042404 15 142 1.6 8.0 0.00 0.00 0.00 79 1007.0
20260507041905 15 138 1.6 9.7 0.00 0.00 0.00 79 1006.8
20260507041404 15 152 1.6 8.0 0.00 0.00 0.00 79 1006.8
20260507035904 15 67 1.6 4.8 0.00 0.00 0.00 79 1006.8
20260507035404 15 136 0.0 3.2 0.00 0.00 0.00 79 1006.6
20260507034905 15 136 1.6 3.2 0.00 0.00 0.00 78 1006.5
20260507034405 15 163 3.2 9.7 0.00 0.00 0.00 78 1006.5
20260507033904 15 174 3.2 8.0 0.00 0.00 0.00 78 1006.5
20260507033404 15 194 3.2 9.7 0.00 0.00 0.00 78 1006.3
20260507032904 15 117 3.2 11.3 0.00 0.00 0.00 78 1006.2
20260507032404 15 157 3.2 9.7 0.00 0.00 0.00 78 1006.2
20260507031905 15 194 3.2 9.7 0.00 0.00 0.00 78 1006.2
20260507031404 15 195 3.2 4.8 0.00 0.00 0.00 77 1006.1
20260507030904 15 207 3.2 11.3 0.00 0.00 0.00 77 1006.1
20260507030404 15 185 3.2 8.0 0.00 0.00 0.00 77 1006.2
20260507025904 15 235 4.8 11.3 0.00 0.00 0.00 77 1006.1
20260507025404 16 234 8.0 19.3 0.00 0.00 0.00 77 1006.1
20260507024405 16 118 1.6 9.7 0.00 0.00 0.00 76 1005.9
20260507023904 16 199 3.2 11.3 0.00 0.00 0.00 76 1005.9
20260507023404 16 178 3.2 14.5 0.00 0.00 0.00 76 1005.9
20260507022905 16 182 1.6 11.3 0.00 0.00 0.00 76 1005.8
20260507022404 16 219 4.8 12.9 0.00 0.00 0.00 76 1005.7
20260507020904 16 181 9.7 19.3 0.00 0.00 0.00 75 1005.5
20260507020404 16 163 9.7 19.3 0.00 0.00 0.00 74 1005.5
20260507015904 16 189 8.0 19.3 0.00 0.00 0.00 74 1005.4
20260507015405 16 183 9.7 22.5 0.00 0.00 0.00 74 1005.3
20260507014904 16 177 8.0 14.5 0.00 0.00 0.00 73 1005.3
20260507014404 16 177 4.8 16.1 0.00 0.00 0.00 73 1005.2
20260507013904 16 180 4.8 12.9 0.00 0.00 0.00 73 1005.2
20260507013404 16 185 4.8 16.1 0.00 0.00 0.00 73 1005.3